Ardmore Downtown, OK

4:32 PM CDT on August 18, 2019 (GMT -0500)
Ardmore Downtown

Weather History for K1F0 - May, 2019

Change the Weather History Date:

Saturday, May 18, 2019

  Actual Average (WUND) Record (WUND)
Temperature  
Mean Temperature 68 °F -  
Max Temperature 75 °F - - (-1)
Min Temperature 60 °F - - (-1)
Cooling Degree Days 2    
Growing Degree Days 18 (Base 50)    
Moisture  
Dew Point 64 °F    
Average Humidity 88    
Maximum Humidity 100    
Minimum Humidity 69    
Precipitation  
Precipitation 1.43 in - - ()
Sea Level Pressure  
Sea Level Pressure 29.68 in    
Wind  
Wind Speed 9 mph (SSE)    
Max Wind Speed 14 mph    
Max Gust Speed 25 mph    
Visibility 9 miles    
Events Rain    
Averages and records for this station are not official NWS values.
T = Trace of Precipitation, MM = Missing Value Source: NWS Daily Summary

Daily Weather History Graph

Daily Weather History Graph

Search for Another Location

Airport or City:

Astronomy

May. 18, 2019 Rise Set
Actual Time 6:24 AM CDT 8:25 PM CDT
Civil Twilight 5:56 AM CDT 8:53 PM CDT
Nautical Twilight 5:22 AM CDT 9:27 PM CDT
Astronomical Twilight 4:46 AM CDT 10:03 PM CDT
Moon 8:24 PM CDT 6:28 AM CDT
Length of Visible Light 14h 56m
Length of Day
14h 00m
Full, 100% of the Moon is Illuminated
May 18
Full
May 18
Full
May 26
Last Quarter
Jun 3
New
Jun 10
First Quarter

Hourly Weather History & Observations

Time (CDT) Temp. Dew Point Humidity Pressure Visibility Wind Dir Wind Speed Gust Speed Precip Events Conditions
12:15 AM 75.2 °F 64.4 °F 69% 29.73 in 10.0 mi SSE 10.4 mph 17.3 mph N/A   Scattered Clouds
12:35 AM 75.2 °F 64.4 °F 69% 29.73 in 10.0 mi SSE 9.2 mph - N/A   Scattered Clouds
12:55 AM 73.4 °F 64.4 °F 73% 29.72 in 10.0 mi SSE 9.2 mph 17.3 mph N/A   Scattered Clouds
1:15 AM 73.4 °F 66.2 °F 78% 29.73 in 10.0 mi SSE 11.5 mph 17.3 mph N/A   Scattered Clouds
1:35 AM 73.4 °F 66.2 °F 78% 29.72 in 10.0 mi SSE 9.2 mph - N/A   Overcast
1:55 AM 73.4 °F 66.2 °F 78% 29.72 in 10.0 mi SSE 8.1 mph - N/A   Overcast
2:15 AM 73.4 °F 66.2 °F 78% 29.73 in 10.0 mi South 11.5 mph 18.4 mph N/A   Overcast
2:35 AM 75.2 °F 66.2 °F 73% 29.73 in 10.0 mi South 12.7 mph 18.4 mph N/A   Overcast
2:55 AM 75.2 °F 66.2 °F 73% 29.73 in 10.0 mi South 10.4 mph 19.6 mph N/A   Overcast
3:15 AM 75.2 °F 66.2 °F 73% 29.73 in 10.0 mi South 8.1 mph 16.1 mph N/A   Overcast
3:35 AM 75.2 °F 66.2 °F 73% 29.73 in 10.0 mi South 9.2 mph - N/A   Overcast
3:55 AM 73.4 °F 66.2 °F 78% 29.72 in 10.0 mi SSE 11.5 mph - N/A   Overcast
4:15 AM 73.4 °F 66.2 °F 78% 29.72 in 10.0 mi SSE 11.5 mph 18.4 mph N/A   Overcast
4:35 AM 73.4 °F 66.2 °F 78% 29.72 in 10.0 mi South 9.2 mph 16.1 mph N/A   Overcast
4:55 AM 73.4 °F 66.2 °F 78% 29.71 in 10.0 mi South 10.4 mph 16.1 mph N/A   Overcast
5:15 AM 73.4 °F 66.2 °F 78% 29.72 in 10.0 mi South 13.8 mph 18.4 mph N/A   Overcast
5:35 AM 73.4 °F 66.2 °F 78% 29.71 in 10.0 mi SSE 10.4 mph - N/A   Overcast
5:55 AM 71.6 °F 68.0 °F 88% 29.69 in 10.0 mi SSE 9.2 mph 16.1 mph N/A   Overcast
6:15 AM 71.6 °F 68.0 °F 88% 29.68 in 10.0 mi SSE 11.5 mph 17.3 mph N/A   Overcast
6:35 AM 73.4 °F 68.0 °F 83% 29.66 in 10.0 mi SE 10.4 mph 20.7 mph N/A   Overcast
6:55 AM 73.4 °F 68.0 °F 83% 29.70 in 10.0 mi South 4.6 mph - N/A   Overcast
7:15 AM 73.4 °F 68.0 °F 83% 29.72 in 10.0 mi South 8.1 mph - N/A   Overcast
7:35 AM 73.4 °F 68.0 °F 83% 29.72 in 10.0 mi South 9.2 mph - N/A   Overcast
7:55 AM 73.4 °F 68.0 °F 83% 29.70 in 10.0 mi SSE 10.4 mph 17.3 mph N/A   Overcast
8:35 AM 73.4 °F 68.0 °F 83% 29.71 in 10.0 mi South 10.4 mph 17.3 mph N/A   Overcast
8:55 AM 71.6 °F 68.0 °F 88% 29.71 in 7.0 mi South 11.5 mph 17.3 mph 0.01 in Rain Light Rain
9:15 AM 71.6 °F 68.0 °F 88% 29.71 in 7.0 mi South 5.8 mph - 0.01 in Rain Light Rain
9:35 AM 71.6 °F 68.0 °F 88% 29.71 in 5.0 mi South 10.4 mph - 0.04 in Rain Rain
9:55 AM 68.0 °F 64.4 °F 88% 29.75 in 4.0 mi West 9.2 mph 25.3 mph 0.08 in Rain Rain
10:15 AM 62.6 °F 60.8 °F 94% 29.75 in 1.8 mi West 4.6 mph 17.3 mph 0.16 in Rain Heavy Rain
10:35 AM 60.8 °F 60.8 °F 100% 29.75 in 0.5 mi West 6.9 mph - 0.99 in Rain Heavy Rain
10:55 AM - - N/A% - - North - - N/A   Unknown
11:15 AM 60.8 °F 60.8 °F 100% 29.76 in 2.5 mi WSW 8.1 mph - 0.17 in Rain Rain
11:35 AM 60.8 °F 60.8 °F 100% 29.79 in 4.0 mi South 5.8 mph - 0.25 in Rain Light Rain
11:55 AM 60.8 °F 60.8 °F 100% 29.74 in 4.0 mi East 3.5 mph - 0.29 in Rain Rain
12:15 PM 60.8 °F 60.8 °F 100% 29.68 in 7.0 mi ENE 8.1 mph - 0.04 in Rain Light Rain
12:35 PM 60.8 °F 60.8 °F 100% 29.70 in 10.0 mi ESE 13.8 mph 20.7 mph 0.05 in Rain Light Rain
12:55 PM 60.8 °F 60.8 °F 100% 29.66 in 10.0 mi ESE 12.7 mph 19.6 mph 0.06 in Rain Light Rain
1:15 PM 60.8 °F 60.8 °F 100% 29.67 in 10.0 mi ESE 10.4 mph 18.4 mph N/A Rain Light Rain
1:35 PM 60.8 °F 60.8 °F 100% 29.67 in 10.0 mi SE 11.5 mph - N/A   Overcast
1:55 PM 60.8 °F 60.8 °F 100% 29.70 in 10.0 mi SSE 8.1 mph - N/A   Overcast
2:15 PM 60.8 °F 60.8 °F 100% 29.67 in 10.0 mi SE 11.5 mph 17.3 mph N/A   Overcast
2:35 PM 60.8 °F 60.8 °F 100% 29.64 in 10.0 mi ESE 4.6 mph - N/A   Overcast
2:55 PM 60.8 °F 60.8 °F 100% 29.65 in 10.0 mi ESE 8.1 mph - N/A   Mostly Cloudy
3:15 PM 60.8 °F 60.8 °F 100% 29.65 in 10.0 mi SE 4.6 mph - N/A   Overcast
3:35 PM 62.6 °F 60.8 °F 94% 29.65 in 10.0 mi SE 6.9 mph - N/A   Overcast
3:55 PM 62.6 °F 60.8 °F 94% 29.62 in 10.0 mi SE 3.5 mph - N/A   Overcast
4:15 PM 62.6 °F 62.6 °F 100% 29.63 in 10.0 mi SSE 8.1 mph - N/A   Overcast
4:35 PM 62.6 °F 62.6 °F 100% 29.61 in 10.0 mi South 5.8 mph - N/A   Mostly Cloudy
4:55 PM 62.6 °F 62.6 °F 100% 29.62 in 10.0 mi SSE 6.9 mph - N/A   Scattered Clouds
5:15 PM 64.4 °F 62.6 °F 94% 29.62 in 10.0 mi SSE 8.1 mph - N/A   Mostly Cloudy
5:35 PM 64.4 °F 62.6 °F 94% 29.61 in 10.0 mi South 6.9 mph - N/A   Mostly Cloudy
5:55 PM 64.4 °F 62.6 °F 94% 29.61 in 10.0 mi SSE 4.6 mph - N/A   Mostly Cloudy
6:15 PM 66.2 °F 62.6 °F 88% 29.62 in 10.0 mi SE 3.5 mph - N/A   Scattered Clouds
6:35 PM 68.0 °F 62.6 °F 83% 29.62 in 10.0 mi SSE 4.6 mph - N/A   Scattered Clouds
6:55 PM 68.0 °F 64.4 °F 88% 29.62 in 10.0 mi SSE 4.6 mph - N/A   Clear
7:15 PM 68.0 °F 64.4 °F 88% 29.61 in 10.0 mi SSE 5.8 mph - N/A   Clear
7:35 PM 68.0 °F 64.4 °F 88% 29.61 in 10.0 mi SSE 5.8 mph - N/A   Scattered Clouds
7:55 PM 68.0 °F 64.4 °F 88% 29.62 in 10.0 mi SSE 5.8 mph - N/A   Clear
8:15 PM 68.0 °F 64.4 °F 88% 29.62 in 10.0 mi South 4.6 mph - N/A   Clear
8:35 PM 68.0 °F 64.4 °F 88% 29.62 in 10.0 mi SSE 4.6 mph - N/A   Clear
8:55 PM 68.0 °F 64.4 °F 88% 29.64 in 10.0 mi SSE 4.6 mph - N/A   Clear
9:15 PM 68.0 °F 64.4 °F 88% 29.64 in 7.0 mi SSE 5.8 mph - N/A   Mostly Cloudy
9:35 PM 68.0 °F 64.4 °F 88% 29.64 in 7.0 mi SSE 6.9 mph - N/A   Overcast
9:55 PM 68.0 °F 64.4 °F 88% 29.65 in 7.0 mi SSE 8.1 mph - N/A   Overcast
10:15 PM 68.0 °F 64.4 °F 88% 29.65 in 7.0 mi SSE 6.9 mph - N/A   Overcast
10:35 PM 68.0 °F 64.4 °F 88% 29.65 in 7.0 mi SSE 8.1 mph - N/A   Overcast
10:55 PM 68.0 °F 64.4 °F 88% 29.66 in 7.0 mi SSE 10.4 mph - N/A   Overcast
11:15 PM 68.0 °F 64.4 °F 88% 29.67 in 7.0 mi South 6.9 mph - N/A   Overcast
11:35 PM 68.0 °F 64.4 °F 88% 29.68 in 5.0 mi South 6.9 mph - N/A   Overcast
11:55 PM 68.0 °F 64.4 °F 88% 29.68 in 5.0 mi South 5.8 mph - N/A   Overcast